Time,TemperatureF,DewpointF,PressureIn,WindDirection,WindDirectionDegrees,WindSpeedMPH,WindSpeedGustMPH,Humidity,HourlyPrecipIn,Conditions,Clouds,dailyrainin,SoftwareType,DateUTC
2013-05-28 00:03:00,43.0,40.0,30.14,East,92,3.0,5.0,88,0.00,,,0.00,,2013-05-28 04:03:00,
2013-05-28 00:13:00,43.0,40.0,30.14,East,92,3.0,5.0,88,0.00,,,0.00,,2013-05-28 04:13:00,
2013-05-28 00:22:00,42.0,39.0,30.14,East,101,2.0,5.0,90,0.00,,,0.00,,2013-05-28 04:22:00,
2013-05-28 00:33:00,42.0,40.0,30.14,East,87,2.0,5.0,91,0.00,,,0.00,,2013-05-28 04:33:00,
2013-05-28 00:43:00,42.0,40.0,30.14,East,87,2.0,5.0,91,0.00,,,0.00,,2013-05-28 04:43:00,
2013-05-28 00:52:00,41.0,39.0,30.14,East,84,2.0,3.0,91,0.00,,,0.00,,2013-05-28 04:52:00,
2013-05-28 01:02:00,41.0,39.0,30.15,East,100,1.0,3.0,92,0.00,,,0.00,,2013-05-28 05:02:00,
2013-05-28 01:12:00,41.0,39.0,30.15,East,100,1.0,3.0,92,0.00,,,0.00,,2013-05-28 05:12:00,
2013-05-28 01:22:00,40.0,38.0,30.15,ESE,105,1.0,2.0,92,0.00,,,0.00,,2013-05-28 05:22:00,
2013-05-28 01:33:00,39.0,37.0,30.16,ESE,106,1.0,2.0,93,0.00,,,0.00,,2013-05-28 05:33:00,
2013-05-28 01:42:00,39.0,37.0,30.16,ESE,106,1.0,2.0,93,0.00,,,0.00,,2013-05-28 05:42:00,
2013-05-28 01:52:00,40.0,38.0,30.16,ESE,106,0.0,1.0,93,0.00,,,0.00,,2013-05-28 05:52:00,
2013-05-28 02:02:00,40.0,38.0,30.16,SW,227,2.0,4.0,94,0.00,,,0.00,,2013-05-28 06:02:00,
2013-05-28 02:12:00,40.0,38.0,30.16,SW,227,2.0,4.0,94,0.00,,,0.00,,2013-05-28 06:12:00,
2013-05-28 02:22:00,39.0,37.0,30.16,SW,227,1.0,2.0,93,0.00,,,0.00,,2013-05-28 06:22:00,
2013-05-28 02:32:00,40.0,38.0,30.16,SW,236,1.0,2.0,94,0.00,,,0.00,,2013-05-28 06:32:00,
2013-05-28 02:42:00,40.0,38.0,30.16,SW,236,1.0,2.0,94,0.00,,,0.00,,2013-05-28 06:42:00,
2013-05-28 02:52:00,39.0,37.0,30.16,SW,236,0.0,1.0,94,0.00,,,0.00,,2013-05-28 06:52:00,
2013-05-28 03:02:00,39.0,38.0,30.16,SW,236,0.0,0.0,95,0.00,,,0.00,,2013-05-28 07:02:00,
2013-05-28 03:11:00,39.0,38.0,30.16,SW,236,0.0,0.0,95,0.00,,,0.00,,2013-05-28 07:11:00,
2013-05-28 03:21:00,39.0,37.0,30.16,SW,236,0.0,0.0,94,0.00,,,0.00,,2013-05-28 07:21:00,
2013-05-28 03:32:00,39.0,37.0,30.17,SW,236,0.0,0.0,94,0.00,,,0.00,,2013-05-28 07:32:00,
2013-05-28 03:42:00,39.0,37.0,30.17,SW,236,0.0,0.0,94,0.00,,,0.00,,2013-05-28 07:42:00,
2013-05-28 03:52:00,39.0,37.0,30.16,SW,236,0.0,0.0,94,0.00,,,0.00,,2013-05-28 07:52:00,
2013-05-28 04:02:00,41.0,40.0,30.16,SW,236,1.0,2.0,95,0.00,,,0.00,,2013-05-28 08:02:00,
2013-05-28 04:12:00,41.0,40.0,30.16,SW,236,1.0,2.0,95,0.00,,,0.00,,2013-05-28 08:12:00,
2013-05-28 04:22:00,40.0,39.0,30.16,SW,233,1.0,3.0,95,0.00,,,0.00,,2013-05-28 08:22:00,
2013-05-28 04:32:00,40.0,39.0,30.17,SW,218,2.0,3.0,95,0.00,,,0.00,,2013-05-28 08:32:00,
2013-05-28 04:42:00,40.0,39.0,30.17,SW,218,2.0,3.0,95,0.00,,,0.00,,2013-05-28 08:42:00,
2013-05-28 04:51:00,39.0,38.0,30.17,SSW,213,0.0,3.0,95,0.00,,,0.00,,2013-05-28 08:51:00,
2013-05-28 05:01:00,41.0,40.0,30.17,SSW,194,3.0,5.0,95,0.00,,,0.00,,2013-05-28 09:01:00,
2013-05-28 05:11:00,41.0,40.0,30.17,SSW,194,3.0,5.0,95,0.00,,,0.00,,2013-05-28 09:11:00,
2013-05-28 05:21:00,39.0,37.0,30.18,SSW,200,2.0,5.0,94,0.00,,,0.00,,2013-05-28 09:21:00,
2013-05-28 05:33:00,38.0,36.0,30.19,SSW,194,3.0,4.0,94,0.00,,,0.00,,2013-05-28 09:33:00,
2013-05-28 05:43:00,38.0,36.0,30.19,SSW,194,3.0,4.0,94,0.00,,,0.00,,2013-05-28 09:43:00,
2013-05-28 05:53:00,38.0,36.0,30.19,South,188,3.0,5.0,94,0.00,,,0.00,,2013-05-28 09:53:00,
2013-05-28 06:03:00,40.0,39.0,30.19,South,190,1.0,3.0,95,0.00,,,0.00,,2013-05-28 10:03:00,
2013-05-28 06:12:00,40.0,39.0,30.19,South,190,1.0,3.0,95,0.00,,,0.00,,2013-05-28 10:12:00,
2013-05-28 06:23:00,42.0,41.0,30.19,South,174,2.0,4.0,95,0.00,,,0.00,,2013-05-28 10:23:00,
2013-05-28 06:32:00,44.0,42.0,30.20,SSW,197,2.0,5.0,92,0.00,,,0.00,,2013-05-28 10:32:00,
2013-05-28 06:42:00,44.0,42.0,30.20,SSW,197,2.0,5.0,92,0.00,,,0.00,,2013-05-28 10:42:00,
2013-05-28 06:53:00,46.0,44.0,30.20,SSE,163,2.0,6.0,92,0.00,,,0.00,,2013-05-28 10:53:00,
2013-05-28 07:02:00,49.0,44.0,30.20,South,181,2.0,5.0,82,0.00,,,0.00,,2013-05-28 11:02:00,
2013-05-28 07:11:00,49.0,44.0,30.20,South,181,2.0,5.0,82,0.00,,,0.00,,2013-05-28 11:11:00,
2013-05-28 07:22:00,50.0,44.0,30.20,South,178,4.0,6.0,79,0.00,,,0.00,,2013-05-28 11:22:00,
2013-05-28 07:32:00,51.0,44.0,30.21,South,169,3.0,7.0,76,0.00,,,0.00,,2013-05-28 11:32:00,
2013-05-28 07:42:00,51.0,44.0,30.21,South,169,3.0,7.0,76,0.00,,,0.00,,2013-05-28 11:42:00,
2013-05-28 07:52:00,51.0,44.0,30.21,SSW,194,3.0,7.0,78,0.00,,,0.00,,2013-05-28 11:52:00,
2013-05-28 08:02:00,52.0,44.0,30.20,WSW,241,4.0,6.0,73,0.00,,,0.00,,2013-05-28 12:02:00,
2013-05-28 08:11:00,52.0,44.0,30.20,WSW,241,4.0,6.0,73,0.00,,,0.00,,2013-05-28 12:11:00,
2013-05-28 08:21:00,54.0,45.0,30.21,SW,217,4.0,6.0,72,0.00,,,0.00,,2013-05-28 12:21:00,
2013-05-28 08:32:00,56.0,46.0,30.21,West,273,3.0,7.0,68,0.00,,,0.00,,2013-05-28 12:32:00,
2013-05-28 08:42:00,56.0,46.0,30.21,West,273,3.0,7.0,68,0.00,,,0.00,,2013-05-28 12:42:00,
2013-05-28 08:52:00,56.0,44.0,30.21,West,265,5.0,7.0,64,0.00,,,0.00,,2013-05-28 12:52:00,
2013-05-28 09:01:00,57.0,42.0,30.21,WSW,244,6.0,8.0,58,0.01,,,0.01,,2013-05-28 13:01:00,
2013-05-28 09:11:00,57.0,42.0,30.21,WSW,244,6.0,8.0,58,0.01,,,0.01,,2013-05-28 13:11:00,
2013-05-28 09:22:00,58.0,44.0,30.21,NW,304,3.0,8.0,59,0.01,,,0.01,,2013-05-28 13:22:00,
2013-05-28 09:32:00,60.0,42.0,30.21,West,277,6.0,8.0,51,0.01,,,0.01,,2013-05-28 13:32:00,
2013-05-28 09:42:00,60.0,42.0,30.21,West,277,6.0,8.0,51,0.01,,,0.01,,2013-05-28 13:42:00,
2013-05-28 09:52:00,61.0,42.0,30.20,NW,305,4.0,8.0,50,0.01,,,0.01,,2013-05-28 13:52:00,
2013-05-28 10:02:00,62.0,43.0,30.21,SW,228,4.0,9.0,49,0.00,,,0.01,,2013-05-28 14:02:00,
2013-05-28 10:12:00,62.0,43.0,30.21,SW,228,4.0,9.0,49,0.00,,,0.01,,2013-05-28 14:12:00,
2013-05-28 10:21:00,62.0,41.0,30.21,WNW,297,6.0,9.0,46,0.00,,,0.01,,2013-05-28 14:21:00,
2013-05-28 10:32:00,63.0,40.0,30.21,West,277,6.0,10.0,42,0.00,,,0.01,,2013-05-28 14:32:00,
2013-05-28 10:42:00,63.0,40.0,30.21,West,277,6.0,10.0,42,0.00,,,0.01,,2013-05-28 14:42:00,
2013-05-28 10:52:00,64.0,40.0,30.22,WNW,294,7.0,10.0,41,0.00,,,0.01,,2013-05-28 14:52:00,
2013-05-28 11:01:00,64.0,40.0,30.22,WNW,294,7.0,10.0,41,0.00,,,0.01,,2013-05-28 15:01:00,
2013-05-28 11:11:00,64.0,40.0,30.22,WNW,294,7.0,10.0,41,0.00,,,0.01,,2013-05-28 15:11:00,
2013-05-28 11:21:00,65.0,37.0,30.21,SW,234,6.0,10.0,35,0.00,,,0.01,,2013-05-28 15:21:00,
2013-05-28 11:33:00,65.0,38.0,30.21,SSW,209,6.0,11.0,37,0.00,,,0.01,,2013-05-28 15:33:00,
2013-05-28 11:43:00,65.0,38.0,30.21,SSW,209,6.0,11.0,37,0.00,,,0.01,,2013-05-28 15:43:00,
2013-05-28 11:52:00,65.0,39.0,30.22,SW,223,5.0,9.0,39,0.00,,,0.01,,2013-05-28 15:52:00,
2013-05-28 12:03:00,66.0,40.0,30.21,South,183,5.0,8.0,38,0.00,,,0.01,,2013-05-28 16:03:00,
2013-05-28 12:13:00,66.0,40.0,30.21,South,183,5.0,8.0,38,0.00,,,0.01,,2013-05-28 16:13:00,
2013-05-28 12:23:00,66.0,40.0,30.21,South,173,7.0,9.0,38,0.00,,,0.01,,2013-05-28 16:23:00,
2013-05-28 12:33:00,66.0,41.0,30.21,South,180,7.0,11.0,40,0.00,,,0.01,,2013-05-28 16:33:00,
2013-05-28 12:42:00,66.0,41.0,30.21,South,180,7.0,11.0,40,0.00,,,0.01,,2013-05-28 16:42:00,
2013-05-28 12:52:00,66.0,39.0,30.21,SSW,192,7.0,13.0,37,0.00,,,0.01,,2013-05-28 16:52:00,
2013-05-28 13:02:00,67.0,40.0,30.21,South,174,7.0,14.0,37,0.00,,,0.01,,2013-05-28 17:02:00,
2013-05-28 13:12:00,67.0,40.0,30.21,South,174,7.0,14.0,37,0.00,,,0.01,,2013-05-28 17:12:00,
2013-05-28 13:22:00,67.0,40.0,30.21,South,174,7.0,14.0,37,0.00,,,0.01,,2013-05-28 17:22:00,
2013-05-28 13:32:00,67.0,39.0,30.21,SSE,157,9.0,15.0,36,0.00,,,0.01,,2013-05-28 17:32:00,
2013-05-28 13:42:00,68.0,38.0,30.20,SW,216,10.0,15.0,33,0.00,,,0.01,,2013-05-28 17:42:00,
2013-05-28 13:52:00,68.0,38.0,30.20,SW,216,10.0,15.0,33,0.00,,,0.01,,2013-05-28 17:52:00,
2013-05-28 14:01:00,67.0,38.0,30.21,SSW,206,7.0,16.0,35,0.00,,,0.01,,2013-05-28 18:01:00,
2013-05-28 14:11:00,67.0,38.0,30.21,SSW,206,7.0,16.0,35,0.00,,,0.01,,2013-05-28 18:11:00,
2013-05-28 14:22:00,66.0,38.0,30.20,SSW,194,8.0,16.0,36,0.00,,,0.01,,2013-05-28 18:22:00,
2013-05-28 14:32:00,66.0,39.0,30.21,SSE,154,9.0,18.0,37,0.00,,,0.01,,2013-05-28 18:32:00,
2013-05-28 14:42:00,68.0,39.0,30.21,SW,230,7.0,17.0,35,0.00,,,0.01,,2013-05-28 18:42:00,
2013-05-28 14:52:00,68.0,39.0,30.21,SW,230,7.0,17.0,35,0.00,,,0.01,,2013-05-28 18:52:00,
2013-05-28 15:01:00,68.0,36.0,30.21,South,171,7.0,18.0,31,0.00,,,0.01,,2013-05-28 19:01:00,
2013-05-28 15:11:00,68.0,36.0,30.21,South,171,7.0,18.0,31,0.00,,,0.01,,2013-05-28 19:11:00,
2013-05-28 15:21:00,67.0,35.0,30.21,SW,215,8.0,16.0,30,0.00,,,0.01,,2013-05-28 19:21:00,
2013-05-28 15:32:00,66.0,34.0,30.21,SSW,192,9.0,17.0,31,0.00,,,0.01,,2013-05-28 19:32:00,
2013-05-28 15:42:00,66.0,34.0,30.21,SSW,192,9.0,17.0,31,0.00,,,0.01,,2013-05-28 19:42:00,
2013-05-28 15:52:00,67.0,41.0,30.21,SSW,194,9.0,20.0,39,0.00,,,0.01,,2013-05-28 19:52:00,
2013-05-28 16:02:00,65.0,36.0,30.21,SSW,198,9.0,16.0,34,0.00,,,0.01,,2013-05-28 20:02:00,
2013-05-28 16:11:00,65.0,36.0,30.21,SSW,198,9.0,16.0,34,0.00,,,0.01,,2013-05-28 20:11:00,
2013-05-28 16:22:00,65.0,34.0,30.21,SW,221,9.0,17.0,32,0.00,,,0.01,,2013-05-28 20:22:00,
2013-05-28 16:32:00,65.0,35.0,30.21,SE,144,7.0,14.0,33,0.00,,,0.01,,2013-05-28 20:32:00,
2013-05-28 16:42:00,65.0,35.0,30.21,SE,144,7.0,14.0,33,0.00,,,0.01,,2013-05-28 20:42:00,
2013-05-28 16:52:00,64.0,35.0,30.21,SW,216,8.0,16.0,34,0.00,,,0.01,,2013-05-28 20:52:00,
2013-05-28 17:02:00,64.0,36.0,30.21,SSW,205,6.0,13.0,35,0.00,,,0.01,,2013-05-28 21:02:00,
2013-05-28 17:11:00,64.0,35.0,30.21,South,182,7.0,15.0,34,0.00,,,0.01,,2013-05-28 21:11:00,
2013-05-28 17:21:00,64.0,35.0,30.21,South,182,7.0,15.0,34,0.00,,,0.01,,2013-05-28 21:21:00,
2013-05-28 17:33:00,63.0,34.0,30.21,SSW,209,8.0,17.0,34,0.00,,,0.01,,2013-05-28 21:33:00,
2013-05-28 17:43:00,62.0,35.0,30.21,South,178,8.0,14.0,37,0.00,,,0.01,,2013-05-28 21:43:00,
2013-05-28 17:53:00,62.0,35.0,30.21,South,178,8.0,14.0,37,0.00,,,0.01,,2013-05-28 21:53:00,
2013-05-28 18:02:00,62.0,39.0,30.20,SW,214,5.0,17.0,43,0.00,,,0.01,,2013-05-28 22:02:00,
2013-05-28 18:13:00,60.0,41.0,30.21,SW,217,4.0,9.0,50,0.00,,,0.01,,2013-05-28 22:13:00,
2013-05-28 18:22:00,60.0,41.0,30.21,SW,217,4.0,9.0,50,0.00,,,0.01,,2013-05-28 22:22:00,
2013-05-28 18:33:00,59.0,40.0,30.21,South,177,5.0,10.0,49,0.00,,,0.01,,2013-05-28 22:33:00,
2013-05-28 18:42:00,59.0,39.0,30.20,SSW,200,6.0,11.0,47,0.00,,,0.01,,2013-05-28 22:42:00,
2013-05-28 18:52:00,59.0,39.0,30.20,SSW,200,6.0,11.0,47,0.00,,,0.01,,2013-05-28 22:52:00,
2013-05-28 19:02:00,58.0,39.0,30.20,South,179,4.0,7.0,49,0.00,,,0.01,,2013-05-28 23:02:00,
2013-05-28 19:11:00,58.0,38.0,30.20,South,190,3.0,7.0,47,0.00,,,0.01,,2013-05-28 23:11:00,
2013-05-28 19:22:00,58.0,38.0,30.20,South,190,3.0,7.0,47,0.00,,,0.01,,2013-05-28 23:22:00,
2013-05-28 19:32:00,57.0,39.0,30.20,SSW,207,4.0,7.0,50,0.00,,,0.01,,2013-05-28 23:32:00,
2013-05-28 19:42:00,57.0,39.0,30.20,SSW,207,4.0,7.0,50,0.00,,,0.01,,2013-05-28 23:42:00,
2013-05-28 19:52:00,57.0,39.0,30.19,SSW,210,4.0,7.0,50,0.00,,,0.01,,2013-05-28 23:52:00,
2013-05-28 20:02:00,56.0,40.0,30.19,SSW,213,5.0,7.0,54,0.00,,,0.01,,2013-05-29 00:02:00,
2013-05-28 20:11:00,56.0,40.0,30.19,SSW,213,5.0,7.0,54,0.00,,,0.01,,2013-05-29 00:11:00,
2013-05-28 20:22:00,55.0,39.0,30.20,SW,221,3.0,7.0,55,0.00,,,0.01,,2013-05-29 00:22:00,
2013-05-28 20:32:00,53.0,39.0,30.20,SSW,194,4.0,7.0,59,0.00,,,0.01,,2013-05-29 00:32:00,
2013-05-28 20:42:00,53.0,39.0,30.20,SSW,194,4.0,7.0,59,0.00,,,0.01,,2013-05-29 00:42:00,
2013-05-28 20:52:00,53.0,40.0,30.20,SSW,200,4.0,6.0,61,0.00,,,0.01,,2013-05-29 00:52:00,
2013-05-28 21:01:00,52.0,39.0,30.20,SSE,167,3.0,6.0,61,0.00,,,0.01,,2013-05-29 01:01:00,
2013-05-28 21:11:00,52.0,39.0,30.20,SSE,167,3.0,6.0,61,0.00,,,0.01,,2013-05-29 01:11:00,
2013-05-28 21:22:00,53.0,40.0,30.21,SSW,204,5.0,7.0,61,0.00,,,0.01,,2013-05-29 01:22:00,
2013-05-28 21:32:00,52.0,40.0,30.21,SW,234,3.0,7.0,63,0.00,,,0.01,,2013-05-29 01:32:00,
2013-05-28 21:42:00,52.0,40.0,30.21,SW,234,3.0,7.0,63,0.00,,,0.01,,2013-05-29 01:42:00,
2013-05-28 21:52:00,52.0,40.0,30.21,SSW,203,2.0,7.0,64,0.00,,,0.01,,2013-05-29 01:52:00,
2013-05-28 22:02:00,49.0,41.0,30.21,SSW,202,1.0,3.0,73,0.00,,,0.01,,2013-05-29 02:02:00,
2013-05-28 22:12:00,49.0,40.0,30.21,SSW,202,2.0,3.0,72,0.00,,,0.01,,2013-05-29 02:12:00,
2013-05-28 22:21:00,49.0,40.0,30.21,SSW,202,2.0,3.0,72,0.00,,,0.01,,2013-05-29 02:21:00,
2013-05-28 22:32:00,49.0,41.0,30.21,SSW,198,1.0,3.0,75,0.00,,,0.01,,2013-05-29 02:32:00,
2013-05-28 22:42:00,47.0,41.0,30.21,SSW,198,0.0,2.0,78,0.00,,,0.01,,2013-05-29 02:42:00,
2013-05-28 22:51:00,47.0,41.0,30.21,SSW,198,0.0,2.0,78,0.00,,,0.01,,2013-05-29 02:51:00,
2013-05-28 23:02:00,47.0,41.0,30.21,SSW,198,0.0,0.0,78,0.00,,,0.01,,2013-05-29 03:02:00,
2013-05-28 23:12:00,47.0,41.0,30.21,SSW,198,0.0,0.0,78,0.00,,,0.01,,2013-05-29 03:12:00,
2013-05-28 23:21:00,46.0,41.0,30.21,ESE,118,1.0,2.0,82,0.00,,,0.01,,2013-05-29 03:21:00,
2013-05-28 23:33:00,46.0,41.0,30.21,East,84,0.0,1.0,82,0.00,,,0.01,,2013-05-29 03:33:00,
2013-05-28 23:43:00,46.0,41.0,30.21,East,84,0.0,1.0,82,0.00,,,0.01,,2013-05-29 03:43:00,
2013-05-28 23:53:00,45.0,40.0,30.22,SSW,199,1.0,2.0,83,0.00,,,0.01,,2013-05-29 03:53:00,